Kolkata, India

11:57 PM IST on November 21, 2017 (GMT +0530)
Netaji Subhash Chandra Bose International

Weather History for VECC - September, 2013

Change the Weather History Date:

Saturday, September 21, 2013

  Actual Average Record
Temperature  
Mean Temperature 85 °F -  
Max Temperature 92 °F 88 °F 96 °F (2012)
Min Temperature 78 °F 78 °F 68 °F (1996)
Cooling Degree Days 20    
Growing Degree Days 35 (Base 50)    
Moisture  
Dew Point 79 °F    
Average Humidity 84    
Maximum Humidity 94    
Minimum Humidity 62    
Precipitation  
Precipitation 0.04 in - - ()
Sea Level Pressure  
Sea Level Pressure 29.63 in    
Wind  
Wind Speed 4 mph ()    
Max Wind Speed 10 mph    
Max Gust Speed -    
Visibility 2.4 miles    
Events Rain    
Averages and records for this station are not official NWS values.
T = Trace of Precipitation, MM = Missing Value Source: Averaged Metar Reports

Daily Weather History Graph

Daily Weather History Graph

Search for Another Location

Airport or City:

Trip Planner

Search our weather history database for the weather conditions in past years. The results will help you decide how hot, cold, wet, or windy it might be!

Date:

Astronomy

Sep. 21, 2013 Rise Set
Actual Time 5:24 AM IST 5:33 PM IST
Civil Twilight 5:02 AM IST 5:56 PM IST
Nautical Twilight 4:36 AM IST 6:22 PM IST
Astronomical Twilight 4:09 AM IST 6:48 PM IST
Moon 6:46 PM IST 6:54 AM IST
Length of Visible Light 12h 53m
Length of Day
12h 09m
Waning Gibbous, 96% of the Moon is Illuminated
Sep 21
Waning Gibbous
Sep 27
Last Quarter
Oct 5
New
Oct 12
First Quarter
Oct 19
Full

Hourly Weather History & Observations

Time (IST) Temp. Heat Index Dew Point Humidity Pressure Visibility Wind Dir Wind Speed Gust Speed Precip Events Conditions
12:20 AM 80.6 °F 87.1 °F 77.0 °F 89% 29.62 in 2.2 mi SSE 3.5 mph - N/A   Haze
12:50 AM 80.6 °F 87.1 °F 77.0 °F 89% 29.62 in 2.2 mi ESE 3.5 mph - N/A   Haze
1:20 AM 80.6 °F 87.1 °F 77.0 °F 89% 29.62 in 2.2 mi East 3.5 mph - N/A   Haze
1:50 AM 80.6 °F 87.1 °F 77.0 °F 89% 29.62 in 2.2 mi East 3.5 mph - N/A   Haze
2:20 AM 78.8 °F - 77.0 °F 94% 29.62 in 2.2 mi ESE 3.5 mph - N/A   Haze
2:30 AM 80 °F - 78 °F 90% 29.66 in 1 mi Calm Calm - -   Haze
2:50 AM 78.8 °F - 77.0 °F 94% 29.62 in 2.2 mi ENE 4.6 mph - N/A   Haze
3:20 AM 78.8 °F - 77.0 °F 94% 29.62 in 2.2 mi ENE 3.5 mph - N/A   Haze
3:50 AM 78.8 °F - 77.0 °F 94% 29.62 in 2.2 mi East 3.5 mph - N/A   Haze
4:20 AM 78.8 °F - 77.0 °F 94% 29.62 in 2.2 mi NE 4.6 mph - N/A   Haze
4:50 AM 78.8 °F - 77.0 °F 94% 29.65 in - ENE 5.8 mph - N/A   Haze
5:20 AM 78.8 °F - 77.0 °F 94% 29.65 in - ENE 5.8 mph - N/A   Haze
5:30 AM 80 °F - 78 °F 93% 29.66 in 1 mi Calm Calm - -   Haze
5:50 AM 78.8 °F - 77.0 °F 94% 29.65 in - ENE 5.8 mph - N/A   Haze
6:20 AM 80.6 °F 87.1 °F 77.0 °F 89% 29.65 in - East 6.9 mph - N/A   Haze
6:50 AM 82.4 °F 92.4 °F 78.8 °F 89% 29.68 in - East 6.9 mph - N/A   Haze
7:20 AM 82.4 °F 92.4 °F 78.8 °F 89% 29.68 in 2.2 mi ESE 6.9 mph - N/A   Haze
7:50 AM 84.2 °F 98.3 °F 80.6 °F 89% 29.71 in 2.5 mi ESE 6.9 mph - N/A   Haze
8:50 AM 86.0 °F 101.9 °F 80.6 °F 84% 29.71 in 3.1 mi ESE 9.2 mph - N/A   Haze
9:20 AM 87.8 °F 104.9 °F 80.6 °F 79% 29.71 in 3.1 mi SE 10.4 mph - N/A   Haze
10:20 AM 89.6 °F 108.2 °F 80.6 °F 75% 29.68 in 3.1 mi SE 10.4 mph - N/A   Haze
10:50 AM 89.6 °F 108.2 °F 80.6 °F 75% 29.68 in 2.5 mi ESE 9.2 mph - N/A   Haze
11:20 AM 87.8 °F 104.9 °F 80.6 °F 79% 29.65 in 2.5 mi SSE 10.4 mph - N/A   Haze
11:50 AM 84.2 °F 98.3 °F 80.6 °F 89% 29.65 in 2.2 mi SSW 10.4 mph - N/A Rain Light Rain
12:20 PM 84.2 °F 98.3 °F 80.6 °F 89% 29.62 in 2.2 mi South 8.1 mph - N/A Rain Light Rain
12:50 PM 86.0 °F 99.3 °F 78.8 °F 79% 29.62 in 2.8 mi SSE 5.8 mph - N/A   Haze
1:20 PM 86.0 °F 99.3 °F 78.8 °F 79% 29.62 in 2.8 mi SSE 3.5 mph - N/A   Haze
1:50 PM 86.0 °F 99.3 °F 78.8 °F 79% 29.62 in 2.8 mi ESE 5.8 mph - N/A   Haze
2:20 PM 87.8 °F 102.5 °F 78.8 °F 75% 29.62 in 2.8 mi ESE 5.8 mph - N/A   Haze
2:30 PM 90 °F - 78 °F 62% 29.62 in 1 mi SE 3.5 mph - -   Haze
2:50 PM 89.6 °F 104.7 °F 78.8 °F 70% 29.59 in 2.8 mi SE 6.9 mph - N/A   Haze
3:20 PM 89.6 °F 104.7 °F 78.8 °F 70% 29.59 in 2.8 mi ESE 5.8 mph - N/A   Haze
3:50 PM 89.6 °F 104.7 °F 78.8 °F 70% 29.56 in 2.8 mi SE 5.8 mph - N/A   Haze
4:20 PM 89.6 °F 104.7 °F 78.8 °F 70% 29.56 in 2.8 mi SE 5.8 mph - N/A   Haze
4:50 PM 87.8 °F 102.5 °F 78.8 °F 75% 29.56 in 2.8 mi SE 4.6 mph - N/A   Haze
5:20 PM 86.0 °F 99.3 °F 78.8 °F 79% 29.56 in 2.5 mi SE 3.5 mph - N/A   Haze
5:30 PM 87 °F - 78 °F 68% 29.58 in 1 mi Calm Calm - -   Haze
5:50 PM 86.0 °F 99.3 °F 78.8 °F 79% 29.56 in 2.5 mi SE 3.5 mph - N/A   Haze
6:20 PM 86.0 °F 99.3 °F 78.8 °F 79% 29.59 in 2.5 mi South 4.6 mph - N/A   Haze
6:50 PM 84.2 °F 96.1 °F 78.8 °F 84% 29.59 in 2.5 mi SSE 4.6 mph - N/A   Haze
7:20 PM 84.2 °F 96.1 °F 78.8 °F 84% 29.62 in 2.5 mi SE 3.5 mph - N/A   Haze
7:50 PM 84.2 °F 96.1 °F 78.8 °F 84% 29.62 in 2.5 mi South 3.5 mph - N/A   Haze
8:20 PM 84.2 °F 96.1 °F 78.8 °F 84% 29.62 in 2.5 mi South 3.5 mph - N/A   Haze
8:50 PM 84.2 °F 96.1 °F 78.8 °F 84% 29.65 in 2.5 mi South 4.6 mph - N/A   Haze
9:20 PM 82.4 °F 92.4 °F 78.8 °F 89% 29.65 in 2.5 mi South 5.8 mph - N/A   Haze
9:50 PM 82.4 °F 92.4 °F 78.8 °F 89% 29.65 in 2.5 mi South 4.6 mph - N/A   Haze
10:20 PM 82.4 °F 92.4 °F 78.8 °F 89% 29.65 in 2.5 mi South 4.6 mph - N/A   Haze
10:50 PM 82.4 °F 92.4 °F 78.8 °F 89% 29.65 in - South 3.5 mph - N/A   Haze
11:20 PM 82.4 °F 92.4 °F 78.8 °F 89% 29.65 in - Calm Calm - N/A   Haze
11:30 PM 82 °F - 79 °F 87% 29.66 in 1 mi Calm Calm - -   Haze
11:50 PM 82.4 °F 92.4 °F 78.8 °F 89% 29.65 in 2.5 mi Calm Calm - N/A   Haze